When you browse on this site, cookies collect data to enhance your experience and personalize the content and advertising you see.
Visit our Privacy Policy to learn more. By continuing to use the site, you agree to this use of cookies and data.

Météo par heure à Brisbane

Ce jour, 9 Juillet, Jeudi

Heure Température Précipitation Vent Pression Humidité
00:00 +15°C° 0.5 mm 4 m/s 768 mmHg 89%
01:00 +15°C° 0.5 mm 4 m/s 768 mmHg 89%
02:00 +16°C° 0.3 mm 3 m/s 768 mmHg 89%
03:00 +16°C° 0.3 mm 3 m/s 767 mmHg 89%
04:00 +16°C° 0 mm 3 m/s 767 mmHg 88%
05:00 +16°C° 0.4 mm 3 m/s 768 mmHg 88%
06:00 +16°C° 0.4 mm 2 m/s 768 mmHg 88%
07:00 +16°C° 0.4 mm 2 m/s 769 mmHg 89%
08:00 +16°C° 0.4 mm 2 m/s 769 mmHg 86%
09:00 +17°C° 0.4 mm 2 m/s 769 mmHg 84%
10:00 +17°C° 0 mm 2 m/s 769 mmHg 87%
11:00 +17°C° 0.4 mm 2 m/s 769 mmHg 85%
12:00 +17°C° 0.4 mm 2 m/s 769 mmHg 83%
13:00 +18°C° 0.4 mm 2 m/s 768 mmHg 81%
14:00 +18°C° 0.4 mm 3 m/s 768 mmHg 81%
15:00 +18°C° 0.4 mm 3 m/s 768 mmHg 81%
16:00 +18°C° 0 mm 2 m/s 768 mmHg 82%
17:00 +18°C° 0.4 mm 2 m/s 768 mmHg 84%
18:00 +17°C° 0.4 mm 2 m/s 768 mmHg 85%
19:00 +17°C° 0.4 mm 2 m/s 768 mmHg 87%
20:00 +17°C° 0.2 mm 2 m/s 768 mmHg 86%
21:00 +17°C° 0.2 mm 2 m/s 768 mmHg 85%
22:00 +16°C° 0.2 mm 2 m/s 768 mmHg 85%
23:00 +16°C° 0.1 mm 2 m/s 768 mmHg 86%

Demain, 10 Juillet, Vendredi

Heure Température Précipitation Vent Pression Humidité
00:00 +16°C° 0.1 mm 2 m/s 768 mmHg 86%
01:00 +15°C° 0.1 mm 2 m/s 768 mmHg 87%
02:00 +15°C° 0 mm 2 m/s 768 mmHg 87%
03:00 +15°C° 0 mm 2 m/s 768 mmHg 88%
04:00 +15°C° 0 mm 2 m/s 768 mmHg 88%
05:00 +15°C° 0.1 mm 2 m/s 768 mmHg 87%
06:00 +15°C° 0.1 mm 2 m/s 768 mmHg 87%
07:00 +15°C° 0.1 mm 2 m/s 768 mmHg 86%
08:00 +17°C° 0 mm 2 m/s 768 mmHg 80%
09:00 +18°C° 0 mm 2 m/s 768 mmHg 73%
10:00 +20°C° 0 mm 2 m/s 768 mmHg 67%
11:00 +20°C° 0 mm 3 m/s 767 mmHg 61%
12:00 +21°C° 0 mm 3 m/s 767 mmHg 56%
13:00 +22°C° 0 mm 3 m/s 766 mmHg 51%
14:00 +21°C° 0 mm 3 m/s 766 mmHg 53%
15:00 +21°C° 0 mm 2 m/s 766 mmHg 55%
16:00 +20°C° 0 mm 2 m/s 765 mmHg 57%
17:00 +19°C° 0 mm 2 m/s 766 mmHg 62%
18:00 +19°C° 0 mm 1 m/s 766 mmHg 68%
19:00 +18°C° 0 mm 1 m/s 766 mmHg 73%
20:00 +16°C° 0 mm 1 m/s 766 mmHg 76%
21:00 +16°C° 0 mm 1 m/s 766 mmHg 78%
22:00 +16°C° 0 mm 1 m/s 767 mmHg 80%
23:00 +15°C° 0 mm 1 m/s 766 mmHg 81%

Après-demain, 11 Juillet, Samedi

Heure Température Précipitation Vent Pression Humidité
00:00 +15°C° 0 mm 1 m/s 766 mmHg 82%
01:00 +15°C° 0 mm 1 m/s 766 mmHg 84%
02:00 +14°C° 0 mm 1 m/s 765 mmHg 85%
03:00 +14°C° 0 mm 1 m/s 765 mmHg 86%
04:00 +14°C° 0 mm 1 m/s 764 mmHg 87%
05:00 +14°C° 0 mm 1 m/s 765 mmHg 87%
06:00 +14°C° 0 mm 1 m/s 765 mmHg 87%
07:00 +13°C° 0 mm 1 m/s 765 mmHg 87%
08:00 +16°C° 0 mm 1 m/s 765 mmHg 78%
09:00 +19°C° 0 mm 1 m/s 765 mmHg 70%
10:00 +21°C° 0 mm 1 m/s 764 mmHg 61%
11:00 +22°C° 0 mm 1 m/s 764 mmHg 57%
12:00 +24°C° 0 mm 1 m/s 763 mmHg 52%
13:00 +23°C° 0 mm 0 m/s 762 mmHg 48%
14:00 +24°C° 0 mm 1 m/s 762 mmHg 51%
15:00 +24°C° 0 mm 1 m/s 762 mmHg 53%
16:00 +23°C° 0 mm 2 m/s 761 mmHg 55%
17:00 +20°C° 0 mm 2 m/s 762 mmHg 64%
18:00 +19°C° 0 mm 2 m/s 762 mmHg 73%
19:00 +18°C° 0 mm 1 m/s 762 mmHg 81%
20:00 +17°C° 0 mm 2 m/s 762 mmHg 83%
21:00 +17°C° 0 mm 2 m/s 762 mmHg 86%
22:00 +16°C° 0 mm 2 m/s 762 mmHg 88%
23:00 +16°C° 0 mm 2 m/s 762 mmHg 88%

12 Juillet, Dimanche

Heure Température Précipitation Vent Pression Humidité
00:00 +16°C° 0 mm 1 m/s 762 mmHg 89%
01:00 +15°C° 0 mm 1 m/s 762 mmHg 90%
02:00 +15°C° 0 mm 1 m/s 761 mmHg 90%
03:00 +15°C° 0 mm 1 m/s 761 mmHg 90%
04:00 +15°C° 0 mm 1 m/s 761 mmHg 90%
05:00 +14°C° 0 mm 1 m/s 761 mmHg 90%
06:00 +14°C° 0 mm 1 m/s 761 mmHg 90%
07:00 +14°C° 0 mm 1 m/s 762 mmHg 90%
08:00 +16°C° 0.1 mm 1 m/s 762 mmHg 84%
09:00 +19°C° 0.1 mm 1 m/s 762 mmHg 77%
10:00 +21°C° 0.1 mm 1 m/s 762 mmHg 70%
11:00 +22°C° 0.2 mm 1 m/s 761 mmHg 67%
12:00 +24°C° 0.2 mm 1 m/s 760 mmHg 63%
13:00 +25°C° 0.2 mm 1 m/s 760 mmHg 59%
14:00 +24°C° 0.6 mm 1 m/s 760 mmHg 63%
15:00 +24°C° 0.6 mm 1 m/s 759 mmHg 67%
16:00 +23°C° 0.6 mm 1 m/s 759 mmHg 71%
17:00 +21°C° 1.5 mm 2 m/s 760 mmHg 75%
18:00 +20°C° 1.5 mm 2 m/s 760 mmHg 79%
19:00 +19°C° 1.5 mm 2 m/s 760 mmHg 83%
20:00 +18°C° 1.4 mm 2 m/s 760 mmHg 84%
21:00 +18°C° 1.4 mm 3 m/s 761 mmHg 85%
22:00 +17°C° 1.4 mm 3 m/s 761 mmHg 87%
23:00 +17°C° 1.2 mm 3 m/s 761 mmHg 87%

13 Juillet, Lundi

Heure Température Précipitation Vent Pression Humidité
00:00 +16°C° 1.2 mm 2 m/s 761 mmHg 88%
01:00 +16°C° 1.2 mm 2 m/s 761 mmHg 89%
02:00 +16°C° 0.8 mm 1 m/s 760 mmHg 89%
03:00 +16°C° 0.8 mm 1 m/s 760 mmHg 90%
04:00 +16°C° 0.8 mm 1 m/s 760 mmHg 91%
05:00 +15°C° 0.3 mm 1 m/s 761 mmHg 88%
06:00 +15°C° 0.3 mm 2 m/s 761 mmHg 86%
07:00 +14°C° 0.3 mm 3 m/s 762 mmHg 83%
08:00 +15°C° 0 mm 4 m/s 762 mmHg 72%
09:00 +15°C° 0 mm 4 m/s 762 mmHg 60%
10:00 +16°C° 0 mm 5 m/s 763 mmHg 48%
11:00 +17°C° 0 mm 5 m/s 762 mmHg 43%
12:00 +19°C° 0 mm 5 m/s 761 mmHg 39%
13:00 +20°C° 0 mm 5 m/s 761 mmHg 35%
14:00 +19°C° 0 mm 5 m/s 760 mmHg 37%
15:00 +19°C° 0 mm 4 m/s 760 mmHg 39%
16:00 +18°C° 0 mm 4 m/s 760 mmHg 40%
17:00 +17°C° 0 mm 4 m/s 761 mmHg 44%
18:00 +14°C° 0 mm 4 m/s 761 mmHg 48%
19:00 +13°C° 0 mm 4 m/s 762 mmHg 52%
20:00 +12°C° 0 mm 4 m/s 762 mmHg 54%
21:00 +12°C° 0 mm 4 m/s 763 mmHg 57%
22:00 +10°C° 0 mm 5 m/s 763 mmHg 59%
23:00 +10°C° 0 mm 5 m/s 762 mmHg 60%

14 Juillet, Mardi

Heure Température Précipitation Vent Pression Humidité
00:00 +10°C° 0 mm 5 m/s 762 mmHg 61%
01:00 +10°C° 0 mm 6 m/s 762 mmHg 61%
02:00 +10°C° 0 mm 6 m/s 762 mmHg 64%
03:00 +9°C° 0 mm 5 m/s 761 mmHg 67%
04:00 +9°C° 0 mm 5 m/s 761 mmHg 70%
05:00 +9°C° 0 mm 5 m/s 761 mmHg 68%
06:00 +9°C° 0 mm 5 m/s 761 mmHg 67%
07:00 +9°C° 0 mm 6 m/s 762 mmHg 66%
08:00 +10°C° 0 mm 6 m/s 762 mmHg 62%
09:00 +13°C° 0 mm 6 m/s 762 mmHg 58%
10:00 +15°C° 0 mm 6 m/s 762 mmHg 55%
11:00 +16°C° 0 mm 6 m/s 761 mmHg 53%
12:00 +17°C° 0 mm 6 m/s 760 mmHg 51%
13:00 +19°C° 0 mm 6 m/s 760 mmHg 49%
14:00 +17°C° 0 mm 6 m/s 759 mmHg 48%
15:00 +17°C° 0 mm 6 m/s 759 mmHg 48%
16:00 +17°C° 0 mm 5 m/s 759 mmHg 48%
17:00 +16°C° 0 mm 6 m/s 760 mmHg 52%
18:00 +15°C° 0 mm 6 m/s 760 mmHg 55%
19:00 +14°C° 0 mm 6 m/s 761 mmHg 59%
20:00 +14°C° 0 mm 5 m/s 761 mmHg 58%
21:00 +13°C° 0 mm 5 m/s 761 mmHg 58%
22:00 +13°C° 0 mm 4 m/s 761 mmHg 57%
23:00 +12°C° 0 mm 4 m/s 761 mmHg 58%
Voir plus